Miscellaneous Local Product
Issued by NWS Hastings, NE

Home | Current Version | Previous Version | Graphics & Text | Print | Product List | Glossary On
Versions: 1 2 3 4 5 6 7 8 9 10 11 12 13 14 15 16 17 18 19 20 21 22 23 24 25 26 27 28 29 30 31 32 33 34 35 36 37 38 39 40 41 42 43 44 45 46 47 48 49 50
000
AXUS43 KGID 302202
MISGRI

GID CWA HOURLY WEATHER ROUNDUP
NATIONAL WEATHER SERVICE HASTINGS NE
500 PM CDT WED JUL 30 2014

NOTE: "FAIR" INDICATES FEW OR NO CLOUDS BELOW 12,000 FEET WITH NO
SIGNIFICANT WEATHER AND/OR OBSTRUCTIONS TO VISIBILITY.

...SOUTH CENTRAL NEBRASKA...

CITY           SKY/WX    TMP DP  RH WIND       PRES   REMARKS
GRAND ISLAND   SUNNY     80  54  40 VRB3      30.15F
HASTINGS       SUNNY     79  51  37 NE5       30.15F
KEARNEY        PTSUNNY   79  55  44 NE5       30.16F
ORD            MOSUNNY   80  54  40 CALM      30.13F
YORK           SUNNY     77  52  41 CALM      30.14F
AURORA         SUNNY     78  54  42 NE6       30.15S
LEXINGTON      MOSUNNY   80  57  46 S5        30.17S
HOLDREGE       MOSUNNY   78  53  42 CALM      30.16F
HEBRON         MOSUNNY   79  46  31 N3        30.13S

...NEBRASKA PANHANDLE...

CITY           SKY/WX    TMP DP  RH WIND       PRES   REMARKS
CHADRON        PTSUNNY   82  44  26 S10       30.18S
ALLIANCE       PTSUNNY   79  51  37 SE6       30.22F
SCOTTSBLUFF    CLOUDY    77  50  38 SW9       30.24F
SIDNEY         CLOUDY    69  57  65 W16       30.29S

...WESTERN AND NORTH CENTRAL NEBRASKA...

CITY           SKY/WX    TMP DP  RH WIND       PRES   REMARKS
VALENTINE      PTSUNNY   84  47  27 S3        30.14F
AINSWORTH      PTSUNNY   79  48  32 CALM      30.16S
ONEILL         MOSUNNY   81  55  41 E5        30.14S
BROKEN BOW     PTSUNNY   80  53  39 E3        30.16F
IMPERIAL       PTSUNNY   77  54  44 NW7       30.22F
NORTH PLATTE   MOSUNNY   80  53  39 S8        30.17F
MCCOOK         PTSUNNY   79  56  45 S7        30.18F

...EASTERN NEBRASKA...

CITY           SKY/WX    TMP DP  RH WIND       PRES   REMARKS
NORFOLK        MOSUNNY   82  51  34 NW8       30.12F
SO SIOUX CITY  MOSUNNY   78  53  41 CALM      30.11F
TEKAMAH        MOSUNNY   82  52  35 VRB5      30.10F
ALBION         SUNNY     78  54  43 CALM      30.13F
OMAHA EPPLEY   MOSUNNY   82  52  35 N9        30.10F
OFFUTT AFB     SUNNY     78  53  41 VRB1      30.10F
MILLARD        MOSUNNY   80  52  37 NW6       30.10F
LINCOLN        PTSUNNY   81  50  33 NE13      30.12F
NEBRASKA CITY  MOSUNNY   79  51  37 N3        30.11F
BEATRICE       MOSUNNY   79  55  44 N6        30.12S
FALLS CITY     MOSUNNY   81  53  37 NE6       30.09F

...NORTHERN KANSAS...

CITY           SKY/WX    TMP DP  RH WIND       PRES   REMARKS
GOODLAND       CLOUDY    70  55  59 SE3       30.26S
HILL CITY      MOSUNNY   78  52  40 NE8       30.17S
NORTON         CLEAR     79  46  31 NE5       30.16F
PHILLIPSBURG   PTSUNNY   81  54  39 E7        30.15F
SMITH CENTER   PTSUNNY   79  54  41 NE8       30.13F
HAYS           PTSUNNY   73  55  53 NE8       30.16F
RUSSELL        PTSUNNY   76  56  49 NE10      30.13F
CONCORDIA      MOSUNNY   79  55  43 MISG      30.11F
SALINA         CLOUDY    76  59  55 NE6       30.12F
TOPEKA         CLOUDY    81  55  40 NE8       30.09S



USA.gov is the U.S. government's official web portal to all federal, state and local government web resources and services.